www.pogodaiklimat.ru
ПОГОДА в Понтеведре
Время
(UTC), дата
07 10.10
08 10.10
09 10.10
10 10.10
11 10.10
12 10.10
13 10.10
14 10.10
15 10.10
16 10.10
17 10.10
18 10.10
19 10.10
20 10.10
21 10.10
22 10.10
23 10.10
00 11.10
01 11.10
02 11.10
03 11.10
04 11.10
05 11.10
06 11.10
07 11.10
08 11.10
09 11.10
10 11.10
11 11.10
12 11.10
13 11.10
14 11.10
15 11.10
16 11.10
17 11.10
18 11.10
19 11.10
20 11.10
21 11.10
22 11.10
23 11.10
00 12.10
01 12.10
02 12.10
03 12.10
04 12.10
05 12.10
06 12.10
07 12.10
08 12.10
09 12.10
10 12.10
11 12.10
12 12.10
13 12.10
14 12.10
15 12.10
16 12.10
17 12.10
18 12.10
19 12.10
20 12.10
21 12.10
22 12.10
23 12.10
00 13.10
01 13.10
02 13.10
03 13.10
04 13.10
05 13.10
06 13.10
07 13.10
08 13.10
09 13.10
10 13.10
11 13.10
12 13.10
13 13.10
14 13.10
15 13.10
16 13.10
17 13.10
18 13.10
19 13.10
20 13.10
21 13.10
22 13.10
23 13.10
00 14.10
01 14.10
02 14.10
03 14.10
04 14.10
05 14.10
06 14.10
07 14.10
08 14.10
09 14.10
10 14.10
11 14.10
12 14.10
13 14.10
14 14.10
15 14.10
16 14.10
17 14.10
18 14.10
19 14.10
20 14.10
21 14.10
22 14.10
23 14.10
00 15.10
01 15.10
02 15.10
03 15.10
04 15.10
05 15.10
06 15.10
07 15.10
08 15.10
09 15.10
10 15.10
11 15.10
12 15.10
13 15.10
14 15.10
15 15.10
16 15.10
17 15.10
18 15.10
19 15.10
20 15.10
21 15.10
22 15.10
23 15.10
00 16.10
01 16.10
02 16.10
03 16.10
04 16.10
05 16.10
06 16.10
07 16.10
08 16.10
09 16.10
10 16.10
11 16.10
12 16.10
13 16.10
14 16.10
15 16.10
16 16.10
17 16.10
18 16.10
19 16.10
20 16.10
21 16.10
22 16.10
23 16.10
00 17.10
01 17.10
02 17.10
03 17.10
04 17.10
05 17.10
Ветер
(напр.,м/с)
Видим. Явления Облачность Т
(С)
Тd
(С)
f
(%)
Тe
(С)
Тes
(С)
Комфортность P
(гПа)
Po
(гПа)
Тmin
(С)
Tmax
(С)
R
(мм)
R24
(мм)
S
(см)
СВ 2 20 км н/о +10.9 +8.5 85 +10 +10 тепло 1021.5 1008.4
ЮВ 1 20 км н/о +11.2 +9.5 89 +11 +11 тепло 1021.9 1008.8
Ю 1 20 км 1/0
[Ci fib]
+13.6 +10.2 80 +14 +17 тепло 1021.8 1008.8
СЗ 2 19 км н/о +17.3 +10.9 66 +18 +18 тепло 1020.9 1008.1
С 2 19 км н/о +20.7 +10.2 51 +23 +23 комфорт 1020.3 1007.6
С 2 15 км 1/0
[Ci fib]
+22.5 +10.6 47 +24 +33 комфорт 1019.5 1006.9
З 4 20 км н/о +22.1 +13.4 58 +25 +25 комфорт 1018.7 1006.1
З 3 20 км н/о +22.9 +13.1 54 +26 +26 жарко 1018.0 1005.5
З 3 12 км 1/0
[Ci fib]
+23.6 +13.2 52 +26 +30 жарко 1017.7 1005.2
З 3 20 км н/о +23.7 +13.0 51 +26 +26 жарко 1017.1 1004.6
ЮЗ 2 20 км н/о +23.1 +13.0 53 +26 +26 жарко 1016.9 1004.4 0.2
Ю 1 10 км 1/0
[Ci fib]
+20.0 +14.4 70 +23 +23 комфорт 1017.0 1004.4 +23.9 0.2
В 1 13 км н/о +17.5 +14.0 80 +19 +19 тепло 1017.4 1004.7
В 2 20 км н/о +16.8 +13.5 81 +17 +17 тепло 1017.5 1004.7
В 2 20 км н/о +16.1 +13.0 82 +16 +16 тепло 1017.8 1005.0
СВ 2 20 км н/о +14.3 +12.0 86 +14 +14 тепло 1017.8 1004.9
СВ 1 19 км н/о +14.1 +11.4 84 +14 +14 тепло 1017.7 1004.8
СВ 2 20 км н/о +12.6 +10.7 88 +12 +12 тепло 1017.4 1004.4
В 1 20 км н/о +12.7 +10.2 85 +13 +13 тепло 1017.4 1004.4
СВ 3 20 км н/о +12.9 +9.7 81 +12 +12 тепло 1017.1 1004.1
СВ 2 20 км н/о +12.3 +9.7 84 +11 +11 тепло 1016.7 1003.7
В 1 20 км н/о +12.0 +9.6 85 +12 +12 тепло 1016.7 1003.7
СВ 2 20 км н/о +11.6 +9.3 86 +10 +10 тепло 1016.8 1003.8
СВ 3 15 км ясно +12.0 +9.6 85 +11 +11 тепло 1016.9 1003.9 +11.3
СВ 2 18 км н/о +11.2 +9.1 87 +10 +10 тепло 1017.3 1004.3
С 1 20 км н/о +11.7 +9.9 89 +12 +12 тепло 1017.7 1004.7
ЮЗ 1 15 км ясно +14.8 +11.6 81 +16 +19 тепло 1017.8 1004.9
Ю 2 9000 м н/о +16.5 +12.8 79 +17 +17 тепло 1017.3 1004.5
Ю 2 12 км н/о +17.8 +13.9 78 +19 +19 тепло 1017.0 1004.3
ЮЗ 3 10 км ясно +17.6 +13.7 78 +18 +25 тепло 1016.6 1003.9
ЮЗ 3 16 км н/о +19.0 +14.9 77 +21 +21 комфорт 1015.8 1003.1
ЮЗ 3 20 км н/о +19.3 +14.8 75 +21 +21 комфорт 1015.2 1002.6
ЮЗ 3 8000 м мгла 1/1 300 м
[Cu hum]
+19.5 +13.7 69 +21 +25 комфорт 1014.9 1002.3
ЮЗ 3 20 км н/о +19.6 +13.5 68 +22 +22 комфорт 1014.7 1002.1
ЮЗ 3 20 км н/о +18.4 +13.5 73 +19 +19 тепло 1014.7 1002.0
Ю 1 8000 м дымка 1/1 50 м
[St Ac trans]
+16.8 +13.3 80 +18 +18 тепло 1014.5 1001.8 +20.3
Ю 1 20 км н/о +15.2 +12.9 86 +16 +16 тепло 1014.7 1001.9
В 1 20 км н/о +14.6 +12.8 89 +16 +16 тепло 1015.0 1002.2
В 2 20 км н/о +13.9 +12.5 91 +14 +14 тепло 1015.2 1002.3
Ю 1 19 км н/о +13.3 +12.0 92 +14 +14 тепло 1015.0 1002.1
В 1 10 км н/о +13.1 +12.2 94 +13 +13 тепло 1014.9 1002.0
ЮВ 1 9000 м н/о +12.5 +11.6 94 +13 +13 тепло 1014.4 1001.5
СВ 1 11 км н/о +12.9 +12.1 95 +14 +14 тепло 1014.0 1001.1
В 1 14 км н/о +13.2 +12.4 95 +14 +14 тепло 1013.3 1000.4
С 1 13 км н/о +13.5 +12.4 93 +14 +14 тепло 1012.7 999.8
С 1 19 км н/о +13.9 +12.6 92 +14 +14 тепло 1012.3 999.5
ЮВ 2 20 км н/о +15.1 +13.3 89 +15 +15 тепло 1011.9 999.1
ЮВ 2 10 км 9/5 600 м
[Cu med, cong Ac trans]
+15.2 +13.0 87 +15 +15 тепло 1011.9 999.1 +12.5
ЮВ 3 14 км н/о +15.5 +13.0 85 +15 +15 тепло 1011.9 999.1
ЮВ 3 20 км н/о +15.8 +13.3 85 +15 +15 тепло 1012.2 999.4
ЮВ 3 10 км 10/6 600 м
[Cu med, cong Ac As]
+16.4 +13.3 82 +16 +16 тепло 1012.0 999.3
ЮВ 2 20 км н/о +17.4 +14.1 81 +18 +18 тепло 1012.1 999.4
Ю 2 19 км н/о +18.4 +14.1 76 +19 +19 тепло 1011.5 998.9
Ю 4 10 км 9/8 600 м
[Cu med, cong Ac trans]
+18.8 +14.3 75 +20 +21 тепло 1011.1 998.5
Ю 2 20 км н/о +19.6 +15.0 75 +22 +22 комфорт 1010.5 997.9
Ю 3 18 км н/о +19.2 +14.9 76 +21 +21 комфорт 1009.9 997.3
ЮЗ 3 8000 м мгла 9/9 300 м
[Cu med, cong]
+19.4 +14.6 74 +21 +22 комфорт 1009.8 997.2
ЮЗ 3 20 км н/о +19.0 +14.5 75 +20 +20 тепло 1009.6 997.0
ЮЗ 4 20 км н/о +18.6 +14.1 75 +19 +19 тепло 1009.7 997.1
Ю 3 10 км 6/3 600 м
[Sc diur, vesp Ac trans Ci fib]
+17.9 +13.8 77 +18 +18 тепло 1009.5 996.9 +19.6
Ю 3 20 км н/о +17.2 +12.9 76 +17 +17 тепло 1009.7 997.0
Ю 2 20 км н/о +17.1 +13.2 78 +17 +17 тепло 1009.4 996.7
Ю 3 20 км н/о +17.2 +12.9 76 +17 +17 тепло 1009.2 996.5
Ю 4 20 км н/о +17.2 +13.1 77 +17 +17 тепло 1009.0 996.3
Ю 5 20 км н/о +17.5 +13.2 76 +17 +17 тепло 1008.5 995.9
Ю 6 20 км н/о +17.4 +13.5 78 +17 +17 тепло 1008.2 995.6
Ю 6 20 км н/о +17.3 +14.0 81 +17 +17 тепло 1008.0 995.4
ЮВ 5 20 км н/о +17.3 +14.0 81 +17 +17 тепло 1007.1 994.5
Ю 5 1400 м сильн. дождь н/о +16.1 +15.0 93 +15 +15 тепло 1006.4 993.7 3
ЮВ 6 3300 м сильн. дождь н/о +15.9 +15.3 96 +14 +14 тепло 1005.8 993.1 6
Ю 4 12 км слаб. морось с дождем н/о +16.2 +15.7 97 +15 +15 тепло 1006.9 994.2 4
ЮЗ 4 3000 м слаб. морось 10/10 50 м
[Frnb]
+16.0 +15.0 94 +15 +15 тепло 1008.4 995.7 +15.8 10
ЮЗ 3 2100 м слаб. морось н/о +14.8 +14.5 98 +14 +14 тепло 1009.3 996.5 0.4
Ю 2 18 км в посл. час морось н/о +14.8 +14.5 98 +15 +15 тепло 1010.1 997.3 0.0
Ю 1 12 км {морось} 10/4 50 м
[Cu Sc Ac As]
+15.6 +15.0 96 +16 +17 тепло 1010.8 998.1 0.4
З 2 20 км н/о +16.1 +14.3 89 +16 +16 тепло 1011.0 998.3
ЮЗ 2 20 км н/о +16.5 +14.3 87 +17 +17 тепло 1011.1 998.4
ЮЗ 1 15 км {морось} 10/3 100 м
[Sc Ac As]
+16.4 +14.1 86 +17 +19 тепло 1010.8 998.1 0.0
ЮЗ 1 7000 м дождь н/о +16.0 +14.2 89 +17 +17 тепло 1010.4 997.7 0.4
ЮЗ 2 9000 м дождь н/о +15.8 +14.5 92 +16 +16 тепло 1010.3 997.6 0.4
ЮЗ 1 5000 м дождь 10/10 100 м
[Cu Sc]
+15.3 +14.5 95 +16 +16 тепло 1010.3 997.6 2
ЮЗ 2 11 км слаб. морось н/о +15.2 +14.7 97 +15 +15 тепло 1009.6 996.9 1
ЮЗ 2 13 км слаб. дождь н/о +13.9 +13.3 96 +14 +14 тепло 1009.9 997.1 0.4
ЮВ 1 3000 м слаб. дождь 10/10 50 м
[Frnb Ns]
+13.6 +13.0 96 +14 +14 тепло 1009.8 997.0 +16.6 3
ЮВ 1 3400 м морось с дождем н/о +13.4 +12.9 97 +13 +13 тепло 1010.2 997.4 2
Ю 1 4200 м дождь н/о +13.2 +12.9 98 +13 +13 тепло 1010.0 997.2 4
СВ 1 4700 м дождь н/о +13.0 +12.5 97 +13 +13 тепло 1009.6 996.8 8
ЮВ 2 2500 м сильн. дождь н/о +12.9 +12.4 97 +12 +12 тепло 1009.6 996.7 2
ЮВ 1 н/о дождь н/о +12.7 +12.4 98 +13 +13 тепло 1009.4 996.5 2
ЮВ 1 8000 м дождь н/о +12.5 +12.0 97 +13 +13 тепло 1008.6 995.7 6
ЮЗ 1 17 км слаб. дождь н/о +12.4 +12.1 98 +12 +12 тепло 1008.6 995.7 1
ЮВ 1 20 км в посл. час дождь н/о +12.4 +11.9 97 +12 +12 тепло 1007.5 994.6 0.0
Ю 1 19 км н/о +12.4 +11.9 97 +12 +12 тепло 1007.0 994.2 1
З 1 20 км н/о +12.4 +11.9 97 +12 +12 тепло 1006.6 993.8
ЮВ 2 20 км н/о +12.7 +11.4 92 +12 +12 тепло 1006.1 993.3
Ю 2 3000 м дождь 10/10 200 м
[Cu Sc]
+12.6 +11.8 95 +12 +12 тепло 1005.9 993.1 +12.3 4
З 2 500 м сильн. дождь н/о +12.3 +12.0 98 +12 +12 тепло 1007.0 994.2 11
Ю 3 19 км слаб. дождь н/о +12.4 +11.9 97 +11 +11 тепло 1007.9 995.0 3
Ю 3 10 км {дождь} 9/9 200 м
[Cu Sc Ac trans]
+13.3 +12.4 94 +12 +12 тепло 1008.1 995.3 14
Ю 3 19 км в посл. час дождь н/о +14.4 +12.9 91 +13 +13 тепло 1009.0 996.2 0.2
Ю 2 20 км в посл. час дождь н/о +12.5 +11.6 94 +11 +11 тепло 1010.7 997.8 6
З 4 20 км {ливн. осадки, дождь} 8/4 300 м
[Cu Sc Ac As Ci fib]
+14.4 +10.0 75 +13 +16 тепло 1011.3 998.5 6
З 3 20 км н/о +14.4 +10.0 75 +13 +13 тепло 1011.9 999.1
ЮЗ 5 6000 м н/о +15.5 +8.2 62 +14 +14 тепло 1012.1 999.3 0.0
З 5 20 км осадки на расстоянии {ливн. осадки} 9/8 300 м
[Cu Sc Ac trans Ci sp]
+14.9 +7.0 59 +14 +14 тепло 1013.2 1000.4 0.0
Ю 3 20 км в посл. час дождь н/о +14.4 +10.2 76 +14 +14 тепло 1014.4 1001.5 0.8
З 3 9000 м дождь н/о +13.1 +10.1 82 +12 +12 тепло 1015.3 1002.4 0.8
ЮЗ 2 10 км осадки на расстоянии {ливн. осадки} 9/8 300 м
[Cu Sc Ac trans Ci fib]
+12.3 +10.0 86 +12 +12 тепло 1016.2 1003.2 +15.9 2
Ю 2 20 км н/о +11.9 +9.8 87 +11 +11 тепло 1016.8 1003.8
ЮВ 1 20 км н/о +11.0 +9.6 91 +12 +12 тепло 1017.1 1004.1
В 2 20 км н/о +10.6 +9.7 94 +9 +9 тепло 1017.8 1004.7
ЮВ 2 19 км н/о +10.4 +9.6 95 +9 +9 тепло 1018.3 1005.2
В 1 20 км н/о +10.3 +9.5 95 +11 +11 тепло 1018.6 1005.5
СВ 1 20 км н/о +10.2 +9.3 94 +11 +11 тепло 1018.8 1005.7
СВ 2 20 км н/о +10.1 +9.3 95 +9 +9 тепло 1018.8 1005.7
С 1 18 км в посл. час дождь н/о +10.1 +9.5 96 +9 +9 тепло 1018.8 1005.7 0.8
СВ 2 20 км в посл. час морось {дождь} н/о +9.3 +9.0 98 +8 +8 тепло 1018.7 1005.6 0.8
СВ 1 20 км н/о +9.5 +9.2 98 +9 +9 тепло 1018.8 1005.7
СВ 2 19 км н/о +9.3 +9.0 98 +8 +8 тепло 1018.9 1005.7
СВ 2 10 км 9/5 300 м
[Cu Sc Ac As Ci fib]
+9.7 +9.4 98 +8 +8 тепло 1018.7 1005.6 +9.2
В 1 11 км слаб. морось н/о +10.0 +9.7 98 +9 +9 тепло 1018.8 1005.7 1
С 1 20 км н/о +10.8 +10.5 98 +10 +10 тепло 1019.2 1006.1
С 1 10 км {ливн. осадки} 9/3 200 м
[Cu Sc Ac As Ci sp]
+12.7 +12.1 96 +13 +14 тепло 1019.3 1006.3 2
Ю 3 20 км н/о +13.7 +11.9 89 +12 +12 тепло 1018.8 1005.9
Ю 4 18 км н/о +15.2 +11.8 80 +14 +14 тепло 1018.6 1005.7
Ю 5 15 км {ливн. осадки} 9/3 300 м
[Cu Sc As op Ci fib]
+15.2 +11.6 79 +14 +16 тепло 1018.3 1005.4
Ю 4 20 км н/о +16.2 +11.8 75 +15 +15 тепло 1017.7 1004.9
Ю 4 20 км н/о +16.2 +12.6 79 +15 +15 тепло 1017.2 1004.4
Ю 5 20 км 10/4 600 м
[Cu Sc Ac As]
+16.2 +11.1 72 +15 +16 тепло 1016.9 1004.1
Ю 4 17 км слаб. дождь н/о +15.7 +12.4 81 +15 +15 тепло 1016.7 1003.9 0.0
Ю 4 20 км в посл. час дождь н/о +14.9 +12.9 88 +14 +14 тепло 1017.0 1004.1 0.2
Ю 5 15 км {дождь} 10/5 600 м
[Cu Sc Ac As]
+15.2 +12.1 82 +14 +14 тепло 1016.7 1003.9 +16.4 0.2
Ю 4 20 км в посл. час дождь н/о +15.1 +12.2 83 +14 +14 тепло 1016.8 1004.0 0.0
Ю 4 19 км слаб. морось н/о +15.0 +12.3 84 +14 +14 тепло 1016.5 1003.7 0.0
Ю 5 11 км дождь н/о +15.0 +12.7 86 +14 +14 тепло 1016.5 1003.7 0.2
Ю 4 9000 м дождь н/о +14.4 +12.9 91 +13 +13 тепло 1016.6 1003.7 1
Ю 5 5000 м морось с дождем н/о +14.4 +13.1 92 +13 +13 тепло 1016.6 1003.7 0.8
Ю 4 4600 м морось с дождем н/о +14.1 +13.5 96 +13 +13 тепло 1016.2 1003.3 3
Ю 4 3300 м морось с дождем н/о +14.1 +13.5 96 +13 +13 тепло 1015.7 1002.8 1
Ю 4 2200 м сильн. дождь н/о +14.2 +13.6 96 +13 +13 тепло 1015.3 1002.4 3
Ю 4 2600 м сильн. дождь н/о +14.3 +13.7 96 +13 +13 тепло 1015.1 1002.2 7
Ю 3 8000 м дождь н/о +14.4 +13.8 96 +14 +14 тепло 1014.5 1001.7 3
Ю 4 14 км слаб. морось с дождем н/о +14.8 +13.7 93 +13 +13 тепло 1014.2 1001.4 0.2
Ю 5 10 км 10/9 200 м
[Cu Sc Ac As]
+15.5 +13.5 88 +14 +14 тепло 1013.8 1001.0 +14.1 3
Ю 5 20 км в посл. час дождь н/о +15.6 +13.6 88 +14 +14 тепло 1013.7 1000.9 0.0
Ю 5 н/о слаб. морось с дождем н/о +14.9 +13.9 94 +13 +13 тепло 1014.2 1001.4 1
Ю 3 3000 м слаб. морось {дождь} 10/9 50 м
[Frnb As op]
+14.6 +14.1 97 +14 +14 тепло 1014.3 1001.5 2
Ю 5 н/о слаб. морось с дождем н/о +15.0 +14.4 96 +14 +14 тепло 1013.9 1001.1 0.4
Ю 4 н/о слаб. морось с дождем н/о +15.5 +14.7 95 +14 +14 тепло 1013.5 1000.7 0.2
Ю 3 3000 м дождь {туман} 10/8 100 м
[Frnb As op]
+15.4 +14.8 96 +15 +15 тепло 1013.2 1000.4 3
Ю 2 2500 м морось с дождем н/о +15.4 +14.9 97 +15 +15 тепло 1012.4 999.6 4
Ю 6 8000 м слаб. морось с дождем н/о +15.7 +15.1 96 +14 +14 тепло 1011.8 999.1 0.6
Ю 4 2500 м слаб. дождь {туман} 10/8 100 м
[Frnb As op]
+15.5 +14.9 96 +14 +15 тепло 1011.6 998.8 5
ЮВ 6 2100 м морось с дождем н/о +15.5 +14.9 96 +14 +14 тепло 1010.8 998.1 1
Ю 5 3800 м морось с дождем н/о +15.6 +15.1 97 +14 +14 тепло 1011.0 998.3 1
Ю 5 4000 м слаб. дождь {туман} 10/6 200 м
[Frnb Ac As]
+15.7 +15.1 96 +14 +14 тепло 1010.8 998.1 +15.9 3
Ю 3 17 км слаб. морось н/о +16.2 +15.6 96 +16 +16 тепло 1011.2 998.5 0.0
ЮЗ 2 5000 м слаб. морось с дождем н/о +16.0 +15.7 98 +16 +16 тепло 1011.5 998.8 9
Ю 5 15 км слаб. морось {дождь} н/о +16.8 +16.5 98 +16 +16 тепло 1011.6 998.9 14
Ю 4 8000 м дождь н/о +16.6 +16.1 97 +16 +16 тепло 1011.8 999.1 3
Ю 3 15 км слаб. морось с дождем н/о +16.2 +15.7 97 +16 +16 тепло 1012.1 999.4 0.2
Ю 3 15 км слаб. морось {дождь} н/о +16.4 +16.1 98 +16 +16 тепло 1012.3 999.6 3
Ю 2 14 км слаб. морось н/о +16.2 +15.9 98 +16 +16 тепло 1012.6 999.9 0.2
Ю 2 12 км в посл. час морось н/о +16.3 +16.0 98 +17 +17 тепло 1012.5 999.8 0.0
Ю 2 20 км н/о +15.9 +15.6 98 +16 +16 тепло 1012.3 999.6 0.2
ЮЗ 3 2500 м морось с дождем н/о +15.5 +15.2 98 +15 +15 тепло 1012.7 999.9 2
Ю 2 17 км в посл. час морось н/о +14.9 +14.7 99 +15 +15 тепло 1013.5 1000.7 0.2
Местоположение метеостанции Понтеведра (Испания): широта 42.43 долгота -8.62 высота над уровнем моря 108 м.
В архиве по умолчанию представлена погода в Понтеведре за последнюю неделю. Архивные данные за месяц целиком и за предыдущие месяцы, начиная с января 2011 года, Вы можете получить, выбрав интересующий диапазон дат из раскрывающегося списка и нажав кнопку "Найти!".
*Определитесь, кто Вы:
Внимание! Время в таблицах - всемирное. Для получения местного времени необходимо прибавить поправку, которая равна 1 ч.
Смотрите также архив погоды в соседних городах и на ближайших метеорологических станциях:
Партнеры нашего сайта:      
Пояснения к столбцам:
  • Ветер - указаны скорость ветра в м/с - средняя за 10 мин, порывы в срок и между сроками (в фигурных скобках) и направление, откуда дует ветер: С - северный,
  • СВ - северо-восточный, В - восточный, ЮВ - юго-восточный, Ю - южный, ЮЗ - юго-западный, З - западный, СЗ - северо-западный.
  • Видимость - горизонтальная дальность видимости в метрах или километрах. При видимости от 1 до 10 км при отсутствии осадков обычно наблюдается дымка, при ухудшении видимости до 1 км и менее - туман. В сухую погоду видимость может ухудшаться дымом, пылью или мглою.
  • Явления - указаны атмосферные явления, наблюдавшиеся в срок или в последний час перед сроком; фигурными скобками обозначены явления, наблюдавшиеся между сроками (за 1-3 часа до срока); квадратными скобками обозначены град или гололедные отложения с указанием их диаметра в мм.
  • Облачность - указаны через наклонную черту общая и нижняя облачность в баллах и высота нижней границы облаков в метрах; квадратными скобками обозначены формы облаков: Ci - перистые, Cs - перисто-слоистые, Cc - перисто-кучевые, Ac - высококучевые, As - высокослоистые, Sc - слоисто-кучевые, Ns - слоисто-дождевые, Cu - кучевые, Cb - кучево-дождевые. Подробнее классификацию облаков см. в Атласе облаков (PDF).
  • T - Температура воздуха - температура, измеренная на высоте 2 м над землей.
  • Td - Температура точки росы - температура, при понижении до которой содержащийся в воздухе водяной пар достигнет насыщения.
  • f - Относительная влажность воздуха - влажноcть воздуха, измеренная на высоте 2 м над землей.
  • Te - Эффективная температура - температура, которую ощущает одетый по сезону человек в тени. Характеристика душности погоды. При расчете учитывается влияние влажности воздуха и скорости ветра на теплоощущения человека.
  • Tes - Эффективная температура на солнце - температура, которую ощущает человек, с поправкой на солнечный нагрев. Характеристика знойности погоды. Зависит от высоты солнца над горизонтом, облачности и скорости ветра. Ночью, в пасмурную погоду, а также при ветре 12 м/с и более поправка равна нулю.
  • P - Атмосферное давление - приведенное к уровню моря атмосферное давление.
  • Po - Атмосферное давление - измеренное на уровне метеостанции атмосферное давление.
  • Tmin - Минимальная температура - минимум температуры воздуха на высоте 2 м над землей.
  • Tmax - Максимальная температура - максимум температуры воздуха на высоте 2 м над землей.
  • R - Количество осадков - Количество выпавших осадков за период времени, мм. При наведении курсора мыши на число - период времени, за который выпало указанное количество осадков.
  • R24 - Количество осадков - Количество выпавших осадков за 24 часа, мм.
  • S - Снежный покров - Высота снежного покрова, см. При наведении курсора мыши на число - состояние снежного покрова и степень покрытия местности в баллах.